Location: Unspecified
(0.0000°N, 0.0000°E)
Time: 01:15:47
(UTC+00:00)

Vanguard 1 - Pass Details

Date: 12 February 2018
Orbit: 650 x 3833 km, 34.2° (Epoch: 21 February)

Event Time Altitude Azimuth Distance (km) Brightness Sun altitude
Exits shadow 01:56:28 34° 133° (SE) 3,351 12.8 -61.2°
Drops below altitude 10° 02:04:52 10° 129° (SE) 5,731 14.3 -59.4°
Sets 02:10:21 0° 128° (SE) 7,188 14.9 -58.1°
